User: anonymous   Login
Location: Croydon
(51.3762°N, 0.0982°W)
Time: 23:01:39
(UTC+01:00)
Language:

AAUSAT CUBESAT 2 - Orbit

View from above orbital plane
View from above orbital plane
View from above satellite
View from above satellite

Ground track
Ground track

The orbit data is extracted from the following two-line orbital elements,

1 32788U 08021F   19110.87202433  .00000667  00000-0  66452-4 0  9996
2 32788  97.5009 129.1963 0012915  43.8619 316.3625 14.94667627596132
Epoch (UTC): 20 April 2019 20:55:42
Eccentricity: 0.0012915
inclination: 97.5009°
perigee height: 574 km
apogee height: 592 km
right ascension of ascending node: 129.1963°
argument of perigee: 43.8619°
revolutions per day: 14.94667627
mean anomaly at epoch: 316.3625°
orbit number at epoch: 59613

The dashed part of the orbit path shows where the satellite is in the earth's shadow,  

DLR